User: anonymous   Login
Location: ??? ?????
(30.6482°N, 60.5850°E)
Time: 16:21:32
(UTC+00:00)
Language:

Palapa 6 Rocket - Orbit

View from above orbital plane
View from above orbital plane
View from above satellite
View from above satellite

Ground track
Ground track

The orbit data is extracted from the following two-line orbital elements,

1 20571U 90034B   20185.19655834  .00000403  00000-0  79705-5 0  9998
2 20571  22.7505  18.0676 0506661 252.9083 101.5288 14.12418573549390
Epoch (UTC): 03 July 2020 04:43:02
Eccentricity: 0.0506661
inclination: 22.7505°
perigee height: 485 km
apogee height: 1217 km
right ascension of ascending node: 18.0676°
argument of perigee: 252.9083°
revolutions per day: 14.12418573
mean anomaly at epoch: 101.5288°
orbit number at epoch: 54939

The dashed part of the orbit path shows where the satellite is in the earth's shadow,  

DLR